Location: Quedlinburg
(51.7921°N, 11.1414°E)
Time: 05:59:38
(UTC+02:00)

STRAND 1 - Pass Details

Date: 16 March 2026
Orbit: 761 x 775 km, 98.4° (Epoch: 16 April)

Event Time Altitude Azimuth Distance (km) Brightness Sun altitude
Rises 05:24:31 0° 174° (S) 3,236 ? -10.5°
Reaches altitude 10° 05:26:51 10° 178° (S) 2,312 ? -10.2°
Maximum altitude 05:31:53 60° 259° (WSW) 886 ? -9.4°
Drops below altitude 10° 05:36:56 10° 339° (NNW) 2,320 ? -8.7°
Sets 05:39:18 0° 343° (NNW) 3,249 ? -8.3°
